When you browse on this site, cookies collect data to enhance your experience and personalize the content and advertising you see.
Visit our Privacy Policy to learn more. By continuing to use the site, you agree to this use of cookies and data.
  • în România
  • Lista ţărilor
  • Pe 7 zile
  • Temperatura apei
  • Hartă satelitară
  • Meteo pe hartă
  • Widget-uri
  • user-avatar
    Intrare

    Meteo pe oră la Cobija

    Astăzi, 17 Iunie, Luni

    Timp Temperatura Precipitaţii Vânt Presiune Umiditate
    00:00 +21°C° 0.2 mm 0 m/s 741 mmHg 97%
    01:00 +21°C° 0 mm 0 m/s 741 mmHg 97%
    02:00 +21°C° 0.1 mm 0 m/s 741 mmHg 97%
    03:00 +21°C° 0.1 mm 0 m/s 741 mmHg 98%
    04:00 +23°C° 0.1 mm 1 m/s 741 mmHg 98%
    05:00 +23°C° 0 mm 1 m/s 741 mmHg 97%
    06:00 +23°C° 0 mm 1 m/s 742 mmHg 97%
    07:00 +23°C° 0 mm 1 m/s 742 mmHg 97%
    08:00 +25°C° 0 mm 1 m/s 743 mmHg 89%
    09:00 +27°C° 0 mm 1 m/s 743 mmHg 81%
    10:00 +29°C° 0 mm 1 m/s 743 mmHg 73%
    11:00 +30°C° 0 mm 1 m/s 742 mmHg 65%
    12:00 +32°C° 0 mm 1 m/s 741 mmHg 56%
    13:00 +34°C° 0 mm 1 m/s 740 mmHg 48%
    14:00 +33°C° 0 mm 1 m/s 740 mmHg 53%
    15:00 +30°C° 0 mm 0 m/s 739 mmHg 57%
    16:00 +30°C° 0 mm 0 m/s 739 mmHg 61%
    17:00 +28°C° 0 mm 0 m/s 739 mmHg 66%
    18:00 +26°C° 0 mm 0 m/s 739 mmHg 71%
    19:00 +25°C° 0 mm 0 m/s 739 mmHg 76%
    20:00 +24°C° 0 mm 0 m/s 740 mmHg 79%
    21:00 +24°C° 0 mm 0 m/s 740 mmHg 81%
    22:00 +23°C° 0 mm 0 m/s 740 mmHg 84%
    23:00 +23°C° 0 mm 0 m/s 740 mmHg 85%

    Mâine, 18 Iunie, Marţi

    Timp Temperatura Precipitaţii Vânt Presiune Umiditate
    00:00 +22°C° 0 mm 0 m/s 740 mmHg 87%
    01:00 +22°C° 0 mm 0 m/s 740 mmHg 89%
    02:00 +22°C° 0 mm 0 m/s 740 mmHg 90%
    03:00 +22°C° 0 mm 0 m/s 740 mmHg 90%
    04:00 +21°C° 0 mm 0 m/s 739 mmHg 91%
    05:00 +22°C° 0 mm 0 m/s 740 mmHg 89%
    06:00 +22°C° 0 mm 0 m/s 740 mmHg 87%
    07:00 +23°C° 0 mm 0 m/s 741 mmHg 86%
    08:00 +25°C° 0 mm 0 m/s 741 mmHg 76%
    09:00 +28°C° 0 mm 0 m/s 741 mmHg 67%
    10:00 +30°C° 0 mm 0 m/s 741 mmHg 58%
    11:00 +31°C° 0 mm 0 m/s 741 mmHg 54%
    12:00 +32°C° 0 mm 0 m/s 740 mmHg 49%
    13:00 +33°C° 0 mm 0 m/s 739 mmHg 45%
    14:00 +32°C° 0 mm 0 m/s 739 mmHg 51%
    15:00 +31°C° 0 mm 0 m/s 738 mmHg 56%
    16:00 +30°C° 0 mm 0 m/s 737 mmHg 61%
    17:00 +28°C° 0 mm 0 m/s 738 mmHg 65%
    18:00 +27°C° 0 mm 0 m/s 738 mmHg 68%
    19:00 +25°C° 0 mm 0 m/s 738 mmHg 72%
    20:00 +25°C° 0 mm 0 m/s 739 mmHg 73%
    21:00 +24°C° 0 mm 0 m/s 739 mmHg 74%
    22:00 +24°C° 0 mm 0 m/s 739 mmHg 76%
    23:00 +23°C° 0 mm 0 m/s 739 mmHg 78%

    Poimâine, 19 Iunie, Miercuri

    Timp Temperatura Precipitaţii Vânt Presiune Umiditate
    00:00 +23°C° 0 mm 0 m/s 739 mmHg 79%
    01:00 +22°C° 0 mm 0 m/s 739 mmHg 81%
    02:00 +22°C° 0 mm 0 m/s 739 mmHg 82%
    03:00 +22°C° 0 mm 0 m/s 739 mmHg 83%
    04:00 +22°C° 0 mm 0 m/s 739 mmHg 83%
    05:00 +22°C° 0 mm 0 m/s 739 mmHg 82%
    06:00 +23°C° 0 mm 0 m/s 740 mmHg 81%
    07:00 +23°C° 0 mm 0 m/s 741 mmHg 79%
    08:00 +26°C° 0 mm 0 m/s 741 mmHg 70%
    09:00 +28°C° 0 mm 0 m/s 742 mmHg 60%
    10:00 +33°C° 0 mm 1 m/s 742 mmHg 51%
    11:00 +34°C° 0 mm 1 m/s 741 mmHg 47%
    12:00 +33°C° 0 mm 0 m/s 741 mmHg 44%
    13:00 +33°C° 0 mm 0 m/s 740 mmHg 40%
    14:00 +32°C° 0 mm 0 m/s 739 mmHg 45%
    15:00 +31°C° 0 mm 0 m/s 738 mmHg 51%
    16:00 +30°C° 0 mm 0 m/s 738 mmHg 56%
    17:00 +28°C° 0 mm 0 m/s 738 mmHg 59%
    18:00 +27°C° 0 mm 0 m/s 739 mmHg 62%
    19:00 +25°C° 0 mm 0 m/s 739 mmHg 65%
    20:00 +24°C° 0 mm 0 m/s 739 mmHg 68%
    21:00 +24°C° 0 mm 0 m/s 740 mmHg 70%
    22:00 +23°C° 0 mm 0 m/s 740 mmHg 72%
    23:00 +23°C° 0 mm 0 m/s 740 mmHg 73%

    20 Iunie, Joi

    Timp Temperatura Precipitaţii Vânt Presiune Umiditate
    00:00 +22°C° 0 mm 0 m/s 740 mmHg 74%
    01:00 +22°C° 0 mm 0 m/s 740 mmHg 75%
    02:00 +22°C° 0 mm 0 m/s 740 mmHg 76%
    03:00 +22°C° 0 mm 0 m/s 740 mmHg 77%
    04:00 +21°C° 0 mm 0 m/s 740 mmHg 79%
    05:00 +22°C° 0 mm 0 m/s 741 mmHg 78%
    06:00 +22°C° 0 mm 0 m/s 741 mmHg 78%
    07:00 +22°C° 0 mm 0 m/s 742 mmHg 78%
    08:00 +27°C° 0 mm 1 m/s 742 mmHg 69%
    09:00 +29°C° 0 mm 1 m/s 743 mmHg 60%
    10:00 +32°C° 0 mm 1 m/s 743 mmHg 51%
    11:00 +33°C° 0 mm 1 m/s 742 mmHg 47%
    12:00 +34°C° 0 mm 1 m/s 742 mmHg 43%
    13:00 +35°C° 0 mm 1 m/s 741 mmHg 38%
    14:00 +34°C° 0 mm 1 m/s 740 mmHg 42%
    15:00 +33°C° 0 mm 1 m/s 740 mmHg 46%
    16:00 +33°C° 0 mm 1 m/s 739 mmHg 50%
    17:00 +31°C° 0 mm 1 m/s 739 mmHg 56%
    18:00 +29°C° 0 mm 1 m/s 740 mmHg 62%
    19:00 +27°C° 0 mm 1 m/s 740 mmHg 68%
    20:00 +26°C° 0 mm 1 m/s 741 mmHg 72%
    21:00 +25°C° 0 mm 1 m/s 741 mmHg 76%
    22:00 +25°C° 0 mm 1 m/s 742 mmHg 80%
    23:00 +24°C° 0 mm 1 m/s 741 mmHg 83%

    21 Iunie, Vineri

    Timp Temperatura Precipitaţii Vânt Presiune Umiditate
    00:00 +24°C° 0 mm 1 m/s 741 mmHg 86%
    01:00 +23°C° 0 mm 1 m/s 741 mmHg 89%
    02:00 +23°C° 0 mm 1 m/s 741 mmHg 91%
    03:00 +22°C° 0 mm 1 m/s 741 mmHg 92%
    04:00 +22°C° 0 mm 1 m/s 741 mmHg 93%
    05:00 +22°C° 0 mm 1 m/s 741 mmHg 90%
    06:00 +23°C° 0 mm 1 m/s 742 mmHg 87%
    07:00 +23°C° 0 mm 1 m/s 743 mmHg 85%
    08:00 +26°C° 0 mm 1 m/s 743 mmHg 74%
    09:00 +28°C° 0 mm 1 m/s 743 mmHg 64%
    10:00 +31°C° 0 mm 1 m/s 744 mmHg 54%
    11:00 +32°C° 0 mm 1 m/s 743 mmHg 49%
    12:00 +33°C° 0 mm 1 m/s 742 mmHg 45%
    13:00 +33°C° 0 mm 0 m/s 741 mmHg 40%
    14:00 +32°C° 0 mm 0 m/s 741 mmHg 44%
    15:00 +31°C° 0 mm 0 m/s 740 mmHg 47%
    16:00 +30°C° 0 mm 0 m/s 739 mmHg 51%
    17:00 +28°C° 0 mm 0 m/s 739 mmHg 56%
    18:00 +26°C° 0 mm 0 m/s 740 mmHg 61%
    19:00 +24°C° 0 mm 0 m/s 740 mmHg 66%
    20:00 +24°C° 0 mm 0 m/s 740 mmHg 67%
    21:00 +23°C° 0 mm 0 m/s 741 mmHg 69%
    22:00 +23°C° 0 mm 0 m/s 741 mmHg 71%
    23:00 +22°C° 0 mm 0 m/s 741 mmHg 73%

    22 Iunie, Sâmbătă

    Timp Temperatura Precipitaţii Vânt Presiune Umiditate
    00:00 +22°C° 0 mm 0 m/s 741 mmHg 75%
    01:00 +21°C° 0 mm 0 m/s 741 mmHg 78%
    02:00 +21°C° 0 mm 0 m/s 741 mmHg 79%
    03:00 +20°C° 0 mm 0 m/s 741 mmHg 81%
    04:00 +20°C° 0 mm 0 m/s 741 mmHg 82%
    05:00 +21°C° 0 mm 0 m/s 741 mmHg 81%
    06:00 +21°C° 0 mm 0 m/s 742 mmHg 79%
    07:00 +22°C° 0 mm 0 m/s 742 mmHg 78%
    08:00 +25°C° 0 mm 0 m/s 743 mmHg 67%
    09:00 +28°C° 0 mm 0 m/s 743 mmHg 57%
    10:00 +31°C° 0 mm 0 m/s 743 mmHg 46%
    11:00 +32°C° 0 mm 0 m/s 742 mmHg 42%
    12:00 +33°C° 0 mm 0 m/s 741 mmHg 39%
    13:00 +34°C° 0 mm 0 m/s 741 mmHg 36%
    14:00 +33°C° 0 mm 0 m/s 740 mmHg 41%
    15:00 +32°C° 0 mm 0 m/s 739 mmHg 46%
    16:00 +30°C° 0 mm 0 m/s 739 mmHg 50%
    17:00 +29°C° 0 mm 0 m/s 739 mmHg 55%
    18:00 +27°C° 0 mm 0 m/s 739 mmHg 59%
    19:00 +25°C° 0 mm 0 m/s 740 mmHg 64%
    20:00 +24°C° 0 mm 0 m/s 740 mmHg 66%
    21:00 +24°C° 0 mm 0 m/s 740 mmHg 69%
    22:00 +23°C° 0 mm 0 m/s 741 mmHg 72%
    23:00 +23°C° 0 mm 0 m/s 741 mmHg 73%
    Arată mai mult